Regional Weather Roundup
Issued by NWS Charleston, SC

Home | Current Version | Previous Version | Text Only | Print | Product List | Glossary On
Versions: 1 2 3 4 5 6 7 8 9 10 11 12 13 14 15 16 17 18 19 20 21 22 23 24 25 26 27 28 29 30 31 32 33 34 35 36 37 38 39 40 41 42 43 44 45 46 47 48 49 50
000
ASUS42 KCHS 280427
RWRCHS

REGIONAL WEATHER ROUNDUP
NATIONAL WEATHER SERVICE CHARLESTON SC
1200 AM EDT WED JUN 28 2017

NOTE: "FAIR" INDICATES FEW OR NO CLOUDS BELOW 12,000 FEET WITH NO
SIGNIFICANT WEATHER AND/OR OBSTRUCTIONS TO VISIBILITY.

NOT ALL STATIONS ARE QUALITY CONTROLLED. USE DATA WITH CAUTION...
ESPECIALLY DEWPOINT OBSERVATIONS.

SCZ027-030-031-034>040-042>050-280500-
...SOUTHEAST SOUTH CAROLINA...

CITY           SKY/WX    TMP DP  RH WIND       PRES   REMARKS
N CHARLESTON   CLOUDY    72  66  81 N5        30.06S
WATERFRONT PRK   N/A     79  70  74 CALM      30.04R
JOHNS ISLAND     N/A     73  70  88 CALM      30.06S
PINOPOLIS        N/A     75  68  78 CALM      30.00R
MONCKS CORNER  FAIR      70  68  94 CALM      30.07S
SUMMERVILLE    FAIR      70  68  94 CALM      30.08S
BEAUFORT MCAS  CLOUDY    75  71  87 CALM      30.06R
BEAUFORT ARPT  FAIR      75  70  83 CALM      30.05S
HILTON HEAD IS CLOUDY    75  73  94 CALM      30.06S
WALTERBORO     CLOUDY    70  66  88 CALM      30.08S
ALLENDALE      FAIR      72  70  94 CALM      30.06S

...SOUTHERN MIDLANDS AND PEE DEE...

CITY           SKY/WX    TMP DP  RH WIND       PRES   REMARKS
GEORGETOWN     FAIR      68  68 100 CALM      30.08S
KINGSTREE      FAIR      70  68  94 CALM      30.08S
ORANGEBURG     CLOUDY    71  68  90 CALM      30.08R
BARNWELL       FAIR      73  68  83 CALM      30.08S
AIKEN          FAIR      70  61  73 CALM      30.12R
MANNING        FAIR      70  70 100 N10G18    30.08S
COLUMBIA       MOCLDY    79  57  46 VRB5      30.08R
SUMTER         CLEAR     70  61  73 NE6       30.07R
FLORENCE       CLEAR     72  60  66 N7        30.09R
MYRTLE BEACH   NOT AVBL
N MYRTLE BEACH MOCLDY    74  66  76 NW5       30.07R

$$

GAZ063-065-086>088-099>101-113>116-118-119-134>141-150-280500-
...SOUTHEAST GEORGIA...

CITY           SKY/WX    TMP DP  RH WIND       PRES   REMARKS
SAVANNAH ARPT  CLOUDY    73  69  87 CALM      30.06S
HUNTER AAF     CLOUDY    72  69  91 CALM      30.03R
FORT STEWART   CLOUDY    72  69  89 N3        30.04R
STATESBORO     CLOUDY    73  73 100 CALM      30.07S
SYLVANIA       MOCLDY    73  73  99 CALM      30.08S
CLAXTON        FAIR      70  69  98 CALM      30.07S

...CSRA...CENTRAL AND FAR SOUTHEAST GEORGIA...

CITY           SKY/WX    TMP DP  RH WIND       PRES   REMARKS
THOMSON        CLEAR     66  64  92 CALM      30.14R
AUGUSTA-BUSH   CLEAR     71  67  87 CALM      30.07R
AUGUSTA-DANIEL PTCLDY    79  58  48 NE5       30.09R
SWAINSBORO     FAIR      73  73 100 CALM      30.08S
VIDALIA        CLOUDY    73  70  88 CALM      30.07F
EASTMAN        FAIR      72  72 100 CALM      30.10S
HAZLEHURST     FAIR      73  73 100 CALM      30.06F
ALMA           CLOUDY    70  68  93 CALM      30.06S
WAYCROSS       CLOUDY    73  73 100 CALM      30.05F FOG
JESUP          FAIR      70  66  88 CALM      30.06S
BAXLEY         FAIR      72  72 100 CALM      30.06F
BRUNSWICK      CLOUDY    72  72 100 CALM      30.06S
SAINT SIMONS   CLOUDY    78  73  84 CALM      30.04R

$$

SCZ027-028-034-036>038-045-046-048>050-GAZ119-141-280500-
...LAKE AND SUPPLEMENTAL COASTAL OBSERVATIONS...

STATION/POSITION TIME  TEMP    WIND        PRES    WAVE   SWELL
                       AIR SEA DIR/SP/G            HT/PER HT/PER/DIR
                 (UTC) (F)     (DEG/KT/KT) (MB)    (FT/S) (FT/S/D)
WINYAH BAY       0345   72     320/  4     1018.0R
LAKE MURRAY      0350   74      30/  3/  5 1017.9R
ACE BASIN NERRS  0345   72        CALM     1018.0S
FORT PULASKI     0400   78 83  160/  1/  2 1017.9
SAPELO ISLAND    0400   74        CALM     1017.0

$$

ANZ835-935-AMZ111-154-330-350-352-354-370-450-454-472-280500-
...C-MAN AND BUOY OBSERVATIONS...

STATION/POSITION TIME  TEMP    WIND        PRES    WAVE   SWELL
                       AIR SEA DIR/SP/G            HT/PER HT/PER/DIR
                 (UTC) (F)     (DEG/KT/KT) (MB)    (FT/S) (FT/S/D)
BUOY 41004       0400   80 81   80/  4/  4 1017.0
BUOY 41008       0350   78 82   CALM  /  2 1016.9R   2/ 4   2/ 70/ 4
FOLLY BEACH CMAN 0400   79      CALM  /  1 1018.4R
CAPERS NEARSHORE 0408   85 83  200/  2/  2 1017.7R
FRIPP NEARSHORE  0408   80 83  150/  4/  8 1017.2R


STATION/POSITION TIME  TEMP    WIND        PRES    WAVE   SWELL
                       AIR SEA DIR/SP/G            HT/PER HT/PER/DIR
                 (UTC) (F)     (DEG/KT/KT) (MB)    (FT/S) (FT/S/D)
5E ST. MARYS GA  0400      80                N/A     2/ 4
FRYING PAN BUOY  0410   79 80  290/  2/  4 1017.5
BUOY 41025       0350   80 81  260/ 10/ 12 1016.9R   2/ 7   2/130/ 7
CAPE LOOKOUT NC  0400   79     310/  8/ 11 1017.6R
BUOY 41002       0350   78 80  200/  4/  6 1017.5R   3/ 6   3/180/ 6
BUOY 41010       0410   82 83  170/  6/  8 1016.9
ST AUGUSTINE FL  0400   78 79  150/  7/  8 1016.5F


$$




USA.gov is the U.S. government's official web portal to all federal, state and local government web resources and services.